#timestamp,LO_Frequency,Hit,StdDev 
1657857615.6,286047001.0,N
1657857635.4,286047000.5,N
1657857655.2,286046999.7,N
1657857675.1,286047000.9,N
1657857676.0,286047000.9,N
1657857695.8,286046999.7,N
1657857715.7,286047002.4,N
1657857735.5,286047000.7,N
1657857755.3,286047001.0,N
1657857775.2,286047001.2,N
1657857795.0,286046998.5,N
1657857795.9,286046998.5,N
1657857815.8,286046998.2,N
1657857835.6,286047000.3,N
1657857855.4,286047002.4,N
1657857875.3,286047001.4,N
1657857895.1,286047000.4,N
1657857915.8,286047000.0,N
1657857935.7,286046998.4,N
1657857955.5,286047002.4,N
1657857975.3,286047001.5,N
1657857995.2,286047005.6,Y
1657858015.0,286047004.0,P
1657858015.9,286047004.0,N
1657858035.8,286047005.9,P
1657858055.6,286047005.5,N
1657858075.4,286047004.3,N
1657858095.3,286047002.7,N
1657858115.1,286047003.2,N
1657858135.9,286047003.8,N
1657858155.7,286047001.6,N
1657858175.5,286047004.2,N
1657858195.4,286047004.4,N
1657858215.2,286046999.7,N
1657858235.0,286047000.5,N
1657858235.9,286047000.5,N
1657858255.8,286047002.5,N
1657858275.6,286047002.2,N
1657858295.5,286047002.3,N
1657858315.3,286046998.5,N
1657858335.1,286047001.2,N
1657858355.9,286047002.8,N
1657858375.7,286047002.9,N
1657858395.5,286047007.2,Y
1657858415.4,286047003.7,P
1657858435.2,286047001.7,P
1657858455.1,286047000.1,N
1657858456.0,286047000.1,N
1657858475.8,286047000.9,N
1657858495.6,286046999.9,N
1657858515.5,286047001.1,N
1657858535.3,286046999.4,N
1657858555.1,286046998.6,N
1657858575.9,286046999.3,N
1657858595.7,286046999.1,N
1657858615.6,286046997.9,N
1657858635.4,286046995.4,N
1657858655.2,286046997.9,N
1657858675.1,286046998.0,N
1657858676.0,286046998.0,N
1657858695.8,286046995.2,N
1657858715.6,286046993.5,Y
1657858735.5,286046994.9,P
1657858755.3,286046999.1,N
1657858775.2,286046998.5,N
1657858795.9,286046999.4,N
1657858815.7,286046999.1,N
1657858835.6,286046999.6,N
1657858855.4,286046997.4,N
1657858875.2,286046995.3,Y
1657858895.1,286046999.5,P
1657858896.0,286046999.5,N
1657858915.8,286047000.8,N
1657858935.7,286046996.7,Y
1657858955.5,286046997.4,P
1657858975.3,286046996.6,P
1657858995.2,286047011.9,P
1657859015.0,286046997.0,N
1657859015.9,286046997.0,N
1657859035.7,286046997.0,N
1657859055.6,286046997.2,N
1657859075.4,286046999.2,N
1657859095.3,286046998.7,N
1657859115.1,286046999.1,N
1657859116.0,286046999.1,N
1657859135.8,286046996.6,N
1657859155.7,286047001.1,N
1657859175.5,286046998.3,N
1657859195.3,286047001.1,N
1657859215.2,286047001.1,N
1657859235.0,286046999.2,N
1657859235.9,286046999.2,N
1657859255.8,286046999.6,N
1657859275.6,286046998.6,N
1657859295.4,286047002.3,N
1657859315.3,286047002.8,N
1657859335.1,286047000.5,N
1657859355.8,286047002.8,N
1657859375.7,286047004.1,N
1657859395.5,286047002.4,N
1657859415.4,286047002.6,N
1657859435.2,286047000.6,N
1657859455.0,286047000.0,N
1657859455.9,286047000.0,N
1657859475.8,286047001.0,N
1657859495.6,286046999.4,N
1657859515.4,286046998.7,N
1657859535.3,286046997.2,N
1657859555.1,286046997.5,N
1657859575.9,286046997.1,N
1657859595.7,286046997.2,N
1657859615.5,286046995.4,N
1657859635.4,286046997.8,N
1657859655.2,286046995.3,N
1657859675.0,286046994.9,N
1657859675.9,286046994.9,N
1657859695.8,286046997.8,N
1657859715.6,286046997.8,N
1657859735.5,286046997.2,N
1657859755.3,286046999.2,N
1657859775.1,286046998.7,N
1657859795.9,286046999.2,N
1657859815.7,286046996.7,N
1657859835.5,286046999.2,N
1657859855.4,286046997.7,N
1657859875.2,286046995.8,N
1657859895.1,286046995.8,N
1657859896.0,286046995.8,N
1657859915.8,286046993.5,N
1657859935.6,286046996.0,N
1657859955.5,286046993.3,Y
1657859975.3,286046997.5,P
1657859995.1,286046999.5,P
1657860015.9,286046998.1,N
1657860035.7,286046998.2,N
1657860055.6,286046999.6,N
1657860075.4,286046998.4,N
1657860095.2,286047000.8,N
1657860115.1,286046999.3,N
1657860116.0,286046999.3,N
1657860135.8,286046997.2,N
1657860155.7,286046996.1,Y
1657860175.5,286047000.4,P
1657860195.3,286046999.9,N
1657860215.2,286047003.6,P
1657860235.9,286047002.4,N
1657860255.7,286047000.4,N
1657860275.6,286046999.7,N
1657860295.4,286047000.0,N
1657860315.2,286047001.2,N
1657860335.1,286047000.5,N
1657860336.0,286047000.5,N
1657860355.8,286047001.2,N
1657860375.7,286046999.1,N
1657860395.5,286046998.2,N
1657860415.3,286046996.5,N
1657860435.2,286046996.8,N
1657860455.0,286046998.3,N
1657860455.9,286046998.3,N
1657860475.7,286046997.0,N
1657860495.6,286046999.4,N
1657860515.4,286046996.8,N
1657860535.3,286046997.5,N
1657860555.1,286046997.3,N
1657860556.0,286046997.3,N
1657860575.8,286046995.1,N
1657860595.7,286046995.0,N
1657860615.5,286046997.1,N
1657860635.3,286046997.0,N
1657860655.2,286046997.5,N
1657860675.0,286046995.1,N
1657860675.9,286046995.1,N
1657860695.8,286046995.6,N
1657860715.6,286046993.6,N
1657860735.4,286046995.8,N
1657860755.3,286046997.3,N
1657860775.1,286047001.0,N
1657860795.8,286047002.7,N
1657860815.7,286047006.2,N
1657860835.5,286047008.1,Y
1657860855.4,286047013.2,P
1657860875.2,286047014.9,N
1657860895.0,286047012.7,N
1657860895.9,286047012.7,N
1657860915.8,286047009.5,N
1657860935.6,286047009.9,N
1657860955.4,286047015.9,Y
1657860975.3,286047001.7,P
1657860995.1,286047004.0,N
1657861015.9,286047005.1,N
1657861035.7,286047006.5,N
1657861055.5,286047003.9,N
1657861075.4,286047004.2,N
1657861095.2,286047007.3,N
1657861115.0,286047006.6,N
1657861115.9,286047006.6,N
1657861135.8,286047006.1,N
1657861155.6,286047006.1,N
1657861175.5,286047006.3,Y
1657861195.3,286046999.7,P
